Herat Airport
OAHR : now visible

Airfield :











YOU CAN JOIN US ON...

 
LOGIN :

Register | Disclaimer

   EN    FR    IT 

 









Legend :    VFR   Marginal VFR   IFR   Intensive IFR   Very Intensive IFR
Visi :
Ceiling :
>= 8 km
>= 3000ft
5 to 8 km
1000 to 3000 ft
1500m to 5 km
500 to 1000 ft
800 to 1500m
200 to 500 ft
< 800m
< 200 ft
Symbols :   Thunderstorms  Fog  Heavy snow  Heavy precipitations  Wind > 20 kt






- Airport Elevation : 3206 ft
- IATA code : HEA


OAHR - Herat

CURRENT METAR :
  • 300255Z VRB02KT CAVOK 26/03 Q1014 RMK A2994 BLU

EXPIRED METARs :
  • 300155Z 00000KT CAVOK 23/02 Q1013 RMK A2993 BLU
  • 300130Z 00000KT CAVOK 23/02 Q1013 RMK OPEN A2993 BLU

TAF AMD TAF OAHR
Valid from the 30 at 01:00 until the 31 at 00:00 UTC


300030Z 3001/3024 VRB03KT CAVOK
BECMG 3007/3009 03015G25KT
BECMG 3015/3017 VRB03KT
OAKX FIR / Asia



MET'MAP, your aeronautical weather chart ! - Copyright ORBIFLY December 2007 - Disclaimer

ORBIFLY MET'MAP TEAM :

Programming & Development : Alexandra Zaïnal
Concept & original design : Baudouin d'Aumeries
Assistance for programming : Marc-Olivier Méhu
Technical & hardware support : Manuel Goepfert

Contact : metmap@orbifly.com




SOURCES & CREDITS :

   NOAA       Earth
Advisory